TimeCDT,TemperatureF,Dew PointF,Humidity,Sea Level PressureIn,VisibilityMPH,Wind Direction,Wind SpeedMPH,Gust SpeedMPH,PrecipitationIn,Events,Conditions,WindDirDegrees,DateUTC
12:53 AM,71.1,66.9,87,29.66,10.0,SE,12.7,-,N/A,,Scattered Clouds,130,2013-05-30 05:53:00
1:53 AM,70.0,66.0,87,29.67,10.0,SE,13.8,-,N/A,,Scattered Clouds,140,2013-05-30 06:53:00
2:53 AM,70.0,64.9,84,29.66,10.0,SSE,16.1,-,N/A,,Clear,150,2013-05-30 07:53:00
3:53 AM,69.1,64.0,84,29.64,10.0,SSE,13.8,-,N/A,,Clear,160,2013-05-30 08:53:00
4:53 AM,70.0,63.0,78,29.64,10.0,South,17.3,21.9,N/A,,Clear,170,2013-05-30 09:53:00
5:53 AM,68.0,61.0,78,29.63,10.0,SSE,15.0,-,N/A,,Scattered Clouds,150,2013-05-30 10:53:00
6:53 AM,68.0,62.1,81,29.65,10.0,SSE,16.1,-,N/A,,Clear,160,2013-05-30 11:53:00
7:53 AM,69.1,64.0,84,29.67,10.0,South,16.1,-,N/A,,Partly Cloudy,170,2013-05-30 12:53:00
8:53 AM,70.0,63.0,78,29.66,10.0,South,16.1,24.2,N/A,,Scattered Clouds,170,2013-05-30 13:53:00
9:53 AM,71.1,64.0,78,29.67,10.0,South,21.9,29.9,N/A,,Scattered Clouds,180,2013-05-30 14:53:00
10:53 AM,71.1,63.0,75,29.67,10.0,South,19.6,28.8,N/A,,Partly Cloudy,180,2013-05-30 15:53:00
11:24 AM,71.6,62.6,73,29.69,10.0,South,20.7,32.2,N/A,,Mostly Cloudy,180,2013-05-30 16:24:00
11:45 AM,71.6,64.4,78,29.69,10.0,South,19.6,27.6,N/A,,Overcast,190,2013-05-30 16:45:00
11:53 AM,71.1,64.0,78,29.68,10.0,South,19.6,31.1,N/A,,Overcast,180,2013-05-30 16:53:00
12:53 PM,71.1,64.0,78,29.67,10.0,South,16.1,26.5,0.00,,Overcast,180,2013-05-30 17:53:00
1:53 PM,73.0,64.0,73,29.62,10.0,South,15.0,-,0.00,,Mostly Cloudy,170,2013-05-30 18:53:00
2:53 PM,71.1,64.9,81,29.61,10.0,South,16.1,-,0.00,Rain,Light Rain,180,2013-05-30 19:53:00
3:53 PM,70.0,64.9,84,29.61,10.0,South,23.0,28.8,0.00,Rain,Light Rain,170,2013-05-30 20:53:00
4:53 PM,66.9,63.0,87,29.55,10.0,South,11.5,20.7,0.00,,Overcast,180,2013-05-30 21:53:00
5:53 PM,70.0,62.1,76,29.58,10.0,South,17.3,-,N/A,,Clear,190,2013-05-30 22:53:00
6:53 PM,68.0,61.0,78,29.60,10.0,South,18.4,29.9,N/A,,Mostly Cloudy,190,2013-05-30 23:53:00
7:08 PM,68.0,60.8,78,29.62,10.0,South,15.0,26.5,N/A,,Overcast,190,2013-05-31 00:08:00
7:53 PM,66.9,61.0,81,29.61,10.0,South,13.8,-,N/A,,Partly Cloudy,180,2013-05-31 00:53:00
8:53 PM,64.9,61.0,87,29.61,10.0,South,10.4,-,N/A,,Clear,190,2013-05-31 01:53:00
9:42 PM,64.4,60.8,88,29.65,10.0,South,8.1,-,N/A,,Mostly Cloudy,170,2013-05-31 02:42:00
9:53 PM,64.9,61.0,87,29.65,10.0,South,13.8,19.6,N/A,,Scattered Clouds,180,2013-05-31 02:53:00
10:53 PM,63.0,61.0,93,29.66,10.0,South,10.4,-,N/A,,Clear,170,2013-05-31 03:53:00
11:53 PM,63.0,61.0,93,29.67,10.0,SSE,10.4,-,N/A,,Clear,150,2013-05-31 04:53:00